Fort Yukon, AK

11:54 AM AKST on December 15, 2017 (GMT -0900)
Fort Yukon

Weather History for PFYU - March, 2013

Change the Weather History Date:

Sunday, March 3, 2013

  Actual Average Record
Temperature  
Mean Temperature -8 °F -  
Max Temperature 3 °F 5 °F 30 °F (2003)
Min Temperature -18 °F -12 °F -45 °F (2007)
Degree Days  
Heating Degree Days 72    
Moisture  
Dew Point -13 °F    
Average Humidity 78    
Maximum Humidity 100    
Minimum Humidity 53    
Precipitation  
Precipitation 0.00 in - - ()
Sea Level Pressure  
Sea Level Pressure 30.43 in    
Wind  
Wind Speed 3 mph (NE)    
Max Wind Speed 5 mph    
Max Gust Speed -    
Visibility 9 miles    
Events      
Averages and records for this station are not official NWS values.
T = Trace of Precipitation, MM = Missing Value Source: NWS Daily Summary

Daily Weather History Graph

Daily Weather History Graph

Search for Another Location

Airport or City:

Trip Planner

Search our weather history database for the weather conditions in past years. The results will help you decide how hot, cold, wet, or windy it might be!

Date:

Astronomy

Mar. 03, 2013 Rise Set
Actual Time 7:45 AM AKST 6:01 PM AKST
Civil Twilight 6:53 AM AKST 6:54 PM AKST
Nautical Twilight 5:52 AM AKST 7:54 PM AKST
Astronomical Twilight 4:48 AM AKST 8:59 PM AKST
Moon 2:48 AM AKST (3/3) 8:05 AM AKST (3/3)
Length of Visible Light 12h 00m
Length of Day
10h 15m
Waning Gibbous, 62% of the Moon is Illuminated
Mar 3
Waning Gibbous
Mar 4
Last Quarter
Mar 11
New
Mar 19
First Quarter
Mar 27
Full

Hourly Weather History & Observations

Time (AKST) Temp. Windchill Dew Point Humidity Pressure Visibility Wind Dir Wind Speed Gust Speed Precip Events Conditions
12:16 AM -7.6 °F -16.5 °F -14.8 °F 71% 30.29 in 10.0 mi NE 3.5 mph - N/A   Clear
12:36 AM -7.6 °F -16.5 °F -11.2 °F 84% 30.29 in 10.0 mi NE 3.5 mph - N/A   Clear
12:56 AM -7.6 °F -18.8 °F -11.2 °F 84% 30.30 in 10.0 mi NE 4.6 mph - N/A   Clear
1:36 AM -9.4 °F -20.9 °F -11.2 °F 92% 30.30 in 10.0 mi NE 4.6 mph - N/A   Clear
1:56 AM -9.4 °F -18.6 °F -14.8 °F 77% 30.31 in 10.0 mi NE 3.5 mph - N/A   Clear
2:36 AM -9.4 °F -18.6 °F -11.2 °F 92% 30.33 in 10.0 mi NNE 3.5 mph - N/A   Clear
2:56 AM -9.4 °F -18.6 °F -14.8 °F 77% 30.33 in 10.0 mi NNE 3.5 mph - N/A   Clear
3:36 AM -11.2 °F -23.0 °F -14.8 °F 84% 30.34 in 10.0 mi NNE 4.6 mph - N/A   Clear
3:56 AM -9.4 °F -18.6 °F -16.6 °F 71% 30.34 in 10.0 mi NNE 3.5 mph - N/A   Clear
4:16 AM -11.2 °F -23.0 °F -11.2 °F 100% 30.35 in 10.0 mi NNE 4.6 mph - N/A   Clear
4:36 AM -11.2 °F -23.0 °F -18.4 °F 70% 30.35 in 10.0 mi NE 4.6 mph - N/A   Clear
4:56 AM -11.2 °F -20.6 °F -16.6 °F 77% 30.36 in 10.0 mi NE 3.5 mph - N/A   Clear
5:16 AM -13.0 °F -25.1 °F -14.8 °F 92% 30.36 in 10.0 mi NE 4.6 mph - N/A   Clear
5:36 AM -13.0 °F -25.1 °F -20.2 °F 70% 30.36 in 10.0 mi NE 4.6 mph - N/A   Clear
5:56 AM -13.0 °F -22.7 °F -16.6 °F 84% 30.37 in 10.0 mi NE 3.5 mph - N/A   Clear
6:16 AM -13.0 °F -22.7 °F -16.6 °F 84% 30.37 in 10.0 mi NE 3.5 mph - N/A   Clear
6:36 AM -14.8 °F -24.8 °F -18.4 °F 84% 30.38 in 10.0 mi NE 3.5 mph - N/A   Clear
7:16 AM -14.8 °F -24.8 °F -20.2 °F 77% 30.39 in 10.0 mi NE 3.5 mph - N/A   Clear
7:36 AM -14.8 °F -24.8 °F -18.4 °F 84% 30.40 in 10.0 mi NE 3.5 mph - N/A   Clear
7:56 AM -14.8 °F -24.8 °F -16.6 °F 92% 30.40 in 10.0 mi NE 3.5 mph - N/A   Clear
8:16 AM -14.8 °F -27.2 °F -20.2 °F 77% 30.40 in 10.0 mi NE 4.6 mph - N/A   Clear
8:36 AM -14.8 °F -27.2 °F -14.8 °F 100% 30.41 in 10.0 mi NE 4.6 mph - N/A   Clear
8:56 AM -13.0 °F -25.1 °F -18.4 °F 77% 30.41 in 10.0 mi NE 4.6 mph - N/A   Clear
9:16 AM - - - N/A% 30.41 in 10.0 mi NE 4.6 mph - N/A   Clear
9:36 AM -11.2 °F -23.0 °F -14.8 °F 84% 30.41 in 10.0 mi ENE 4.6 mph - N/A   Clear
9:56 AM -9.4 °F -20.9 °F -11.2 °F 92% 30.43 in 10.0 mi East 4.6 mph - N/A   Clear
10:16 AM -7.6 °F - -7.6 °F 100% 30.44 in 10.0 mi Calm Calm - N/A   Clear
10:36 AM -5.8 °F - -9.4 °F 84% 30.44 in 10.0 mi Calm Calm - N/A   Clear
10:56 AM -5.8 °F -14.5 °F -9.4 °F 84% 30.45 in 10.0 mi East 3.5 mph - N/A   Clear
11:16 AM -5.8 °F - -9.4 °F 84% 30.45 in 10.0 mi Calm Calm - N/A   Clear
11:36 AM -5.8 °F -16.7 °F -9.4 °F 84% 30.45 in 10.0 mi NE 4.6 mph - N/A   Clear
11:56 AM -2.2 °F -10.4 °F -5.8 °F 85% 30.45 in 10.0 mi NE 3.5 mph - N/A   Clear
12:16 PM -2.2 °F - -9.4 °F 71% 30.46 in 10.0 mi Calm Calm - N/A   Clear
12:36 PM -2.2 °F -10.4 °F -5.8 °F 85% 30.47 in 10.0 mi NNE 3.5 mph - N/A   Clear
12:56 PM -0.4 °F - -7.6 °F 72% 30.47 in 10.0 mi Calm Calm - N/A   Clear
1:16 PM -0.4 °F -8.3 °F -7.6 °F 72% 30.46 in 10.0 mi ENE 3.5 mph - N/A   Clear
1:36 PM -0.4 °F -10.4 °F -5.8 °F 78% 30.47 in 10.0 mi ENE 4.6 mph - N/A   Clear
1:56 PM 1.4 °F - -7.6 °F 66% 30.46 in 10.0 mi Calm Calm - N/A   Clear
2:16 PM 1.4 °F - -5.8 °F 72% 30.47 in 10.0 mi Calm Calm - N/A   Clear
2:36 PM 1.4 °F - -5.8 °F 72% 30.47 in 10.0 mi Calm Calm - N/A   Clear
2:56 PM 3.2 °F -4.2 °F -5.8 °F 66% 30.47 in 10.0 mi NE 3.5 mph - N/A   Clear
3:16 PM 3.2 °F - -7.6 °F 61% 30.47 in 10.0 mi Calm Calm - N/A   Clear
3:36 PM 3.2 °F -6.2 °F -2.2 °F 78% 30.46 in 10.0 mi NE 4.6 mph - N/A   Clear
3:56 PM 3.2 °F -4.2 °F -7.6 °F 61% 30.46 in 10.0 mi ENE 3.5 mph - N/A   Clear
4:16 PM 3.2 °F -4.2 °F -4.0 °F 72% 30.47 in 10.0 mi ENE 3.5 mph - N/A   Clear
4:36 PM 3.2 °F -4.2 °F -7.6 °F 61% 30.48 in 10.0 mi NNE 3.5 mph - N/A   Clear
4:56 PM 1.4 °F -6.2 °F -7.6 °F 66% 30.48 in 10.0 mi North 3.5 mph - N/A   Clear
5:16 PM 1.4 °F -6.2 °F -5.8 °F 72% 30.48 in 10.0 mi NE 3.5 mph - N/A   Clear
5:36 PM -0.4 °F - -9.4 °F 66% 30.48 in 10.0 mi Calm Calm - N/A   Clear
5:56 PM -0.4 °F - -5.8 °F 78% 30.49 in 10.0 mi Calm Calm - N/A   Clear
6:16 PM -4.0 °F - -13.0 °F 65% 30.49 in 10.0 mi Calm Calm - N/A   Clear
6:36 PM -5.8 °F - -11.2 °F 77% 30.49 in 10.0 mi Calm Calm - N/A   Clear
6:56 PM -9.4 °F - -14.8 °F 77% 30.50 in 10.0 mi Calm Calm - N/A   Clear
7:36 PM -9.4 °F - -16.6 °F 71% 30.50 in 8.0 mi Calm Calm - N/A   Clear
7:56 PM -11.2 °F - -16.6 °F 77% 30.51 in 9.0 mi Calm Calm - N/A   Clear
8:16 PM -11.2 °F - -16.6 °F 77% 30.50 in 7.0 mi Calm Calm - N/A   Clear
8:36 PM -13.0 °F - -20.2 °F 70% 30.51 in 7.0 mi Calm Calm - N/A   Clear
8:56 PM -14.8 °F - -16.6 °F 92% 30.50 in 10.0 mi Calm Calm - N/A   Clear
9:16 PM -14.8 °F - -16.6 °F 92% 30.50 in 3.0 mi Calm Calm - N/A   Clear
9:36 PM -14.8 °F - -18.4 °F 84% 30.50 in 10.0 mi Calm Calm - N/A   Clear
9:56 PM -13.0 °F - -14.8 °F 92% 30.51 in 10.0 mi Calm Calm - N/A   Clear
10:16 PM -14.8 °F - -25.6 °F 58% 30.51 in 4.0 mi Calm Calm - N/A   Clear
10:36 PM -14.8 °F - -16.6 °F 92% 30.51 in 3.0 mi Calm Calm - N/A   Clear
10:56 PM -14.8 °F - -23.8 °F 64% 30.49 in 3.0 mi Calm Calm - N/A   Clear
11:16 PM -18.4 °F - -25.6 °F 70% 30.49 in 2.5 mi Calm Calm - N/A   Clear
11:36 PM -18.4 °F - -25.6 °F 70% 30.51 in 7.0 mi Calm Calm - N/A   Clear
11:56 PM -18.4 °F - -18.4 °F 100% 30.51 in 9.0 mi Calm Calm - N/A   Clear